HORYU-4

Last updated on Wed Feb 04 2026 00:03:54 GMT+0000 (Coordinated Universal Time)

1 41340U 16012D 26034.42720993 .00066832 00000+0 87594-3 0 9993 2 41340 30.9926 306.5846 0002600 31.9558 328.1250 15.57233340549758
UTC large
Height (km)
Speed (km/s)
/
Latitude / Longitude
Inclination (degrees)
Orbital Period (minutes)
Azimuth
Elevation
Range (km)
Doppler Factor

Next 0 passes for location: London (51.5072 / 0.1276)

Sorry there are no passes over London.